Time,TemperatureF,DewpointF,PressureIn,WindDirection,WindDirectionDegrees,WindSpeedMPH,WindSpeedGustMPH,Humidity,HourlyPrecipIn,Conditions,Clouds,dailyrainin,SoftwareType,DateUTC
2013-02-11 00:01:00,23.0,2.0,30.33,South,179,1.0,-999.0,40,0.00,,,-99.99,,2013-02-11 05:01:00,
2013-02-11 00:12:00,23.0,2.0,30.33,SW,224,2.0,-999.0,40,0.00,,,-99.99,,2013-02-11 05:12:00,
2013-02-11 00:22:00,23.0,2.0,30.33,SW,224,2.0,-999.0,40,0.00,,,-99.99,,2013-02-11 05:22:00,
2013-02-11 00:32:00,23.0,3.0,30.33,SW,224,2.0,-999.0,41,0.00,,,-99.99,,2013-02-11 05:32:00,
2013-02-11 00:42:00,23.0,3.0,30.32,West,267,1.0,-999.0,41,0.00,,,-99.99,,2013-02-11 05:42:00,
2013-02-11 00:53:00,23.0,3.0,30.32,West,267,1.0,-999.0,41,0.00,,,-99.99,,2013-02-11 05:53:00,
2013-02-11 01:02:00,23.0,2.0,30.32,West,259,3.0,-999.0,40,0.00,,,-99.99,,2013-02-11 06:02:00,
2013-02-11 01:11:00,24.0,3.0,30.32,West,263,4.0,-999.0,40,0.00,,,-99.99,,2013-02-11 06:11:00,
2013-02-11 01:22:00,24.0,3.0,30.32,West,263,4.0,-999.0,40,0.00,,,-99.99,,2013-02-11 06:22:00,
2013-02-11 01:32:00,24.0,3.0,30.31,SW,224,3.0,-999.0,39,0.00,,,-99.99,,2013-02-11 06:32:00,
2013-02-11 01:42:00,24.0,3.0,30.30,SW,224,2.0,-999.0,39,0.00,,,-99.99,,2013-02-11 06:42:00,
2013-02-11 01:52:00,24.0,3.0,30.30,SW,224,2.0,-999.0,39,0.00,,,-99.99,,2013-02-11 06:52:00,
2013-02-11 02:01:00,24.0,3.0,30.30,SW,225,2.0,-999.0,39,0.00,,,-99.99,,2013-02-11 07:01:00,
2013-02-11 02:11:00,24.0,3.0,30.29,SW,224,4.0,-999.0,39,0.00,,,-99.99,,2013-02-11 07:11:00,
2013-02-11 02:22:00,24.0,3.0,30.29,SW,224,4.0,-999.0,39,0.00,,,-99.99,,2013-02-11 07:22:00,
2013-02-11 02:32:00,24.0,3.0,30.28,SW,224,1.0,-999.0,39,0.00,,,-99.99,,2013-02-11 07:32:00,
2013-02-11 02:42:00,24.0,3.0,30.28,SW,224,2.0,-999.0,40,0.00,,,-99.99,,2013-02-11 07:42:00,
2013-02-11 02:52:00,24.0,3.0,30.28,SW,224,2.0,-999.0,40,0.00,,,-99.99,,2013-02-11 07:52:00,
2013-02-11 03:01:00,24.0,4.0,30.27,SW,224,2.0,-999.0,41,0.00,,,-99.99,,2013-02-11 08:01:00,
2013-02-11 03:11:00,24.0,3.0,30.26,SE,134,1.0,-999.0,40,0.00,,,-99.99,,2013-02-11 08:11:00,
2013-02-11 03:21:00,24.0,3.0,30.26,SE,134,1.0,-999.0,40,0.00,,,-99.99,,2013-02-11 08:21:00,
2013-02-11 03:32:00,23.0,3.0,30.27,South,179,2.0,-999.0,41,0.00,,,-99.99,,2013-02-11 08:32:00,
2013-02-11 03:42:00,24.0,5.0,30.27,West,263,3.0,-999.0,43,0.00,,,-99.99,,2013-02-11 08:42:00,
2013-02-11 03:52:00,24.0,5.0,30.27,West,263,3.0,-999.0,43,0.00,,,-99.99,,2013-02-11 08:52:00,
2013-02-11 04:01:00,23.0,5.0,30.27,WSW,248,3.0,-999.0,45,0.00,,,-99.99,,2013-02-11 09:01:00,
2013-02-11 04:12:00,22.0,4.0,30.26,SW,224,2.0,-999.0,45,0.00,,,-99.99,,2013-02-11 09:12:00,
2013-02-11 04:21:00,22.0,4.0,30.26,SW,224,2.0,-999.0,45,0.00,,,-99.99,,2013-02-11 09:21:00,
2013-02-11 04:32:00,22.0,4.0,30.26,SW,224,2.0,-999.0,45,0.00,,,-99.99,,2013-02-11 09:32:00,
2013-02-11 04:42:00,22.0,5.0,30.25,SE,134,1.0,-999.0,48,0.00,,,-99.99,,2013-02-11 09:42:00,
2013-02-11 04:52:00,22.0,5.0,30.25,SE,134,1.0,-999.0,48,0.00,,,-99.99,,2013-02-11 09:52:00,
2013-02-11 05:01:00,22.0,5.0,30.24,SE,134,1.0,-999.0,47,0.00,,,-99.99,,2013-02-11 10:01:00,
2013-02-11 05:11:00,23.0,5.0,30.23,SE,134,3.0,-999.0,45,0.00,,,-99.99,,2013-02-11 10:11:00,
2013-02-11 05:21:00,23.0,5.0,30.23,SE,134,3.0,-999.0,45,0.00,,,-99.99,,2013-02-11 10:21:00,
2013-02-11 05:32:00,23.0,8.0,30.22,SSE,165,2.0,-999.0,52,0.00,,,-99.99,,2013-02-11 10:32:00,
2013-02-11 05:42:00,23.0,5.0,30.22,South,179,2.0,-999.0,46,0.00,,,-99.99,,2013-02-11 10:42:00,
2013-02-11 05:52:00,23.0,5.0,30.22,South,179,2.0,-999.0,46,0.00,,,-99.99,,2013-02-11 10:52:00,
2013-02-11 06:02:00,23.0,5.0,30.22,South,180,4.0,-999.0,45,0.00,,,-99.99,,2013-02-11 11:02:00,
2013-02-11 06:11:00,23.0,6.0,30.22,SW,215,3.0,-999.0,48,0.00,,,-99.99,,2013-02-11 11:11:00,
2013-02-11 06:22:00,23.0,6.0,30.22,SW,215,3.0,-999.0,48,0.00,,,-99.99,,2013-02-11 11:22:00,
2013-02-11 06:32:00,24.0,8.0,30.23,SW,224,7.0,-999.0,50,0.00,,,-99.99,,2013-02-11 11:32:00,
2013-02-11 06:42:00,24.0,8.0,30.22,SSW,200,2.0,-999.0,50,0.00,,,-99.99,,2013-02-11 11:42:00,
2013-02-11 06:52:00,24.0,8.0,30.22,SSW,200,2.0,-999.0,50,0.00,,,-99.99,,2013-02-11 11:52:00,
2013-02-11 07:03:00,24.0,9.0,30.21,South,179,3.0,-999.0,53,0.00,,,-99.99,,2013-02-11 12:03:00,
2013-02-11 07:12:00,25.0,11.0,30.20,SSW,198,2.0,-999.0,54,0.00,,,-99.99,,2013-02-11 12:12:00,
2013-02-11 07:22:00,25.0,11.0,30.20,SSW,198,2.0,-999.0,54,0.00,,,-99.99,,2013-02-11 12:22:00,
2013-02-11 07:32:00,25.0,11.0,30.19,South,190,4.0,-999.0,55,0.00,,,-99.99,,2013-02-11 12:32:00,
2013-02-11 07:42:00,25.0,12.0,30.19,SSW,198,2.0,-999.0,56,0.00,,,-99.99,,2013-02-11 12:42:00,
2013-02-11 07:52:00,25.0,12.0,30.19,SSW,198,2.0,-999.0,56,0.00,,,-99.99,,2013-02-11 12:52:00,
2013-02-11 08:02:00,26.0,13.0,30.19,South,179,5.0,-999.0,57,0.00,,,-99.99,,2013-02-11 13:02:00,
2013-02-11 08:12:00,26.0,13.0,30.17,South,184,5.0,-999.0,57,0.00,,,-99.99,,2013-02-11 13:12:00,
2013-02-11 08:22:00,26.0,13.0,30.17,South,184,5.0,-999.0,57,0.00,,,-99.99,,2013-02-11 13:22:00,
2013-02-11 08:32:00,26.0,13.0,30.17,South,179,3.0,-999.0,58,0.00,,,-99.99,,2013-02-11 13:32:00,
2013-02-11 08:42:00,26.0,13.0,30.17,South,179,3.0,-999.0,58,0.00,,,-99.99,,2013-02-11 13:42:00,
2013-02-11 08:52:00,27.0,15.0,30.16,SE,142,3.0,-999.0,60,0.00,,,-99.99,,2013-02-11 13:52:00,
2013-02-11 09:02:00,28.0,17.0,30.15,South,179,3.0,-999.0,62,0.00,,,-99.99,,2013-02-11 14:02:00,
2013-02-11 09:12:00,28.0,17.0,30.15,South,179,3.0,-999.0,62,0.00,,,-99.99,,2013-02-11 14:12:00,
2013-02-11 09:22:00,28.0,17.0,30.15,South,191,2.0,-999.0,62,0.00,,,-99.99,,2013-02-11 14:22:00,
2013-02-11 09:33:00,29.0,18.0,30.14,West,267,2.0,-999.0,62,0.00,,,-99.99,,2013-02-11 14:33:00,
2013-02-11 09:42:00,29.0,19.0,30.11,ESE,121,2.0,-999.0,67,0.00,,,-99.99,,2013-02-11 14:42:00,
2013-02-11 09:52:00,29.0,19.0,30.11,ESE,121,2.0,-999.0,67,0.00,,,-99.99,,2013-02-11 14:52:00,
2013-02-11 10:02:00,29.0,20.0,30.09,SE,139,4.0,-999.0,69,0.00,,,-99.99,,2013-02-11 15:02:00,
2013-02-11 10:11:00,30.0,23.0,30.08,SE,134,5.0,-999.0,74,0.00,,,-99.99,,2013-02-11 15:11:00,
2013-02-11 10:22:00,30.0,23.0,30.08,SE,134,5.0,-999.0,74,0.00,,,-99.99,,2013-02-11 15:22:00,
2013-02-11 10:32:00,30.0,23.0,30.07,SE,131,2.0,-999.0,76,0.00,,,-99.99,,2013-02-11 15:32:00,
2013-02-11 10:42:00,30.0,24.0,30.06,ESE,121,2.0,-999.0,78,0.00,,,-99.99,,2013-02-11 15:42:00,
2013-02-11 10:52:00,30.0,24.0,30.06,ESE,121,2.0,-999.0,78,0.00,,,-99.99,,2013-02-11 15:52:00,
2013-02-11 11:02:00,30.0,24.0,30.05,NE,44,3.0,-999.0,78,0.00,,,-99.99,,2013-02-11 16:02:00,
2013-02-11 11:12:00,29.0,23.0,30.05,North,0,4.0,-999.0,77,0.00,,,-99.99,,2013-02-11 16:12:00,
2013-02-11 11:22:00,29.0,23.0,30.05,North,0,4.0,-999.0,77,0.00,,,-99.99,,2013-02-11 16:22:00,
2013-02-11 11:32:00,29.0,24.0,30.02,NE,44,3.0,-999.0,82,0.00,,,-99.99,,2013-02-11 16:32:00,
2013-02-11 11:42:00,29.0,27.0,29.99,East,98,3.0,-999.0,94,0.00,,,-99.99,,2013-02-11 16:42:00,
2013-02-11 11:52:00,29.0,27.0,29.99,East,98,3.0,-999.0,94,0.00,,,-99.99,,2013-02-11 16:52:00,
2013-02-11 12:02:00,31.0,30.0,29.98,East,89,3.0,-999.0,96,0.00,,,-99.99,,2013-02-11 17:02:00,
2013-02-11 12:11:00,32.0,31.0,29.96,East,89,3.0,-999.0,95,0.00,,,-99.99,,2013-02-11 17:11:00,
2013-02-11 12:22:00,32.0,31.0,29.96,East,89,3.0,-999.0,95,0.00,,,-99.99,,2013-02-11 17:22:00,
2013-02-11 12:32:00,34.0,33.0,29.93,East,89,4.0,-999.0,96,0.00,,,-99.99,,2013-02-11 17:32:00,
2013-02-11 12:42:00,34.0,33.0,29.93,East,89,4.0,-999.0,96,0.00,,,-99.99,,2013-02-11 17:42:00,
2013-02-11 12:53:00,35.0,34.0,29.91,SE,142,5.0,-999.0,97,0.00,,,-99.99,,2013-02-11 17:53:00,
2013-02-11 13:02:00,36.0,35.0,29.89,SE,134,5.0,-999.0,98,0.00,,,-99.99,,2013-02-11 18:02:00,
2013-02-11 13:11:00,36.0,35.0,29.89,SE,134,5.0,-999.0,98,0.00,,,-99.99,,2013-02-11 18:11:00,
2013-02-11 13:22:00,36.0,36.0,29.87,South,173,6.0,-999.0,100,0.01,,,-99.99,,2013-02-11 18:22:00,
2013-02-11 15:42:00,36.0,36.0,29.76,NW,312,2.0,-999.0,100,0.01,,,-99.99,,2013-02-11 20:42:00,
2013-02-11 15:52:00,36.0,36.0,29.76,NW,312,2.0,-999.0,100,0.01,,,-99.99,,2013-02-11 20:52:00,
2013-02-11 16:02:00,36.0,36.0,29.77,NNW,342,6.0,-999.0,100,0.02,,,-99.99,,2013-02-11 21:02:00,
2013-02-11 16:12:00,35.0,35.0,29.76,WNW,291,4.0,-999.0,99,0.02,,,-99.99,,2013-02-11 21:12:00,
2013-02-11 16:22:00,35.0,35.0,29.76,WNW,291,4.0,-999.0,99,0.02,,,-99.99,,2013-02-11 21:22:00,
2013-02-11 17:52:00,35.0,35.0,29.69,NNW,343,0.0,-999.0,100,0.05,,,-99.99,,2013-02-11 22:52:00,
2013-02-11 18:02:00,35.0,35.0,29.69,NW,312,0.0,-999.0,100,0.05,,,-99.99,,2013-02-11 23:02:00,
2013-02-11 18:11:00,35.0,35.0,29.69,NW,312,0.0,-999.0,100,0.05,,,-99.99,,2013-02-11 23:11:00,
2013-02-11 18:32:00,35.0,35.0,29.69,WNW,285,2.0,-999.0,100,0.05,,,-99.99,,2013-02-11 23:32:00,
2013-02-11 18:42:00,35.0,35.0,29.69,WNW,285,2.0,-999.0,100,0.05,,,-99.99,,2013-02-11 23:42:00,
2013-02-11 18:52:00,35.0,35.0,29.69,NNW,332,2.0,-999.0,100,0.05,,,-99.99,,2013-02-11 23:52:00,
2013-02-11 19:02:00,34.0,34.0,29.68,NW,316,3.0,-999.0,100,0.05,,,-99.99,,2013-02-12 00:02:00,
2013-02-11 19:12:00,34.0,34.0,29.68,NW,316,3.0,-999.0,100,0.05,,,-99.99,,2013-02-12 00:12:00,
2013-02-11 19:32:00,34.0,34.0,29.67,NW,312,3.0,-999.0,100,0.05,,,-99.99,,2013-02-12 00:32:00,
2013-02-11 19:42:00,34.0,34.0,29.67,NW,312,3.0,-999.0,100,0.05,,,-99.99,,2013-02-12 00:42:00,